www.pogodaiklimat.ru

ПОГОДА в Элиме, AK

  • Прогноз погоды в Элиме
  • Монитор погоды в Элиме
  • Климат в Элиме

АРХИВ ПОГОДЫ в Элиме

Время (UTC), дата Ветер
(напр.,м/с)
 
Видим.   Явления Облачность Т
(С)
Тd
(С)
f
(%)
Тe
(С)
Тes
(С)
Комфортность

P
(гПа)

Po
(гПа)
Тmin
(С)
Tmax
(С)
R
(мм)
SD
(см)
20:56 25.03 Ю  6
{9} 
6 км  неопределенные осадки, дымка  10/10 570 м  +0.6  0.0  96  -7  -7    1008.6  1002.5         
21:56 25.03 Ю  6 км  слабый дождь, дымка  10/10 570 м  +1.1  +0.6  96  -6  -6    1008.5  1002.5         
22:56 25.03 Ю  8
{10} 
8 км  слабый дождь, дымка  10/10 510 м  +1.1  +0.6  96  -7  -7    1007.8  1001.8  +0.6  +1.1  7.6   
23:18 25.03 Ю  8 км  слабый дождь, дымка  10/10 390 м  +1.0  +1.0  100  -7  -7      1001.5         
23:33 25.03 Ю  6 км  слабый дождь, дымка  10/10 90 м  +1.0  +1.0  100  -7  -7      1001.5         
23:48 25.03 Ю  6 км  слабый дождь, дымка  10/10 90 м  +1.0  +1.0  100  -7  -7      1001.5         
23:56 25.03 Ю  6 км  слабый дождь, дымка  10/10 90 м  +1.1  +0.6  96  -7  -7    1007.5  1001.5         
00:36 26.03 Ю  8
{11} 
8 км  слабый дождь, дымка  10/10 90 м  +1.0  +1.0  100  -7  -7      1001.5         
00:56 26.03 Ю  11 км  слабый дождь  10/10 300 м  +1.7  +1.1  96  -6  -6    1007.4  1001.5         
01:56 26.03 Ю  10 км  слабый дождь, дымка  10/10 420 м  +1.1  +0.6  96  -7  -7    1007.2  1001.2      1.3   
02:56 26.03 Ю  11 км  слабый дождь  10/10 300 м  +1.1  +0.6  96  -7  -7    1007.5  1001.5         
03:56 26.03 Ю  14 км  слабый дождь  10/10 360 м  +0.6  +0.6  100  -8  -8    1007.7  1001.8         
04:19 26.03 Ю  16 км  слабый дождь  10/10 450 м  +1.0  +1.0  100  -7  -7      1001.8         
04:42 26.03 Ю  16 км  слабый дождь  10/10 390 м  +1.0  +1.0  100  -7  -7      1002.2         
04:56 26.03 Ю  16 км  слабый дождь  10/10 330 м  +0.6  0.0  96  -7  -7    1008.3  1002.2  +0.6  +1.7  2.5   
05:56 26.03 Ю  16 км  неопределенные осадки  10/10 390 м  +0.6  0.0  96  -6  -6    1008.9  1002.8         
06:21 26.03 ЮЗ  16 км    10/10 270 м  +1.0  0.0  93  -4  -4      1003.2         
06:56 26.03 Ю  16 км  слабый дождь  10/10 180 м  +0.6  0.0  96  -4  -4    1009.6  1003.5         
07:56 26.03 Ю  16 км    10/10 180 м  0.0  -0.6  96  -6  -6    1010.0  1003.8         
08:41 26.03 Ю  16 км    10/10 180 м  +1.0  0.0  93  -4  -4      1004.5         
08:56 26.03 Ю  16 км    10/10 180 м  +0.6  0.0  96  -5  -5    1010.6  1004.5         
09:13 26.03 Ю  16 км    10/10 180 м  +1.0  0.0  93  -4  -4      1004.9         
09:45 26.03 Ю  16 км    10/10 180 м  +1.0  0.0  93  -4  -4      1005.2         
09:56 26.03 Ю  16 км    10/10 180 м  +0.6  0.0  96  -6  -6    1011.2  1005.2         
10:11 26.03 Ю  16 км    10/10 390 м  +1.0  0.0  93  -5  -5      1005.5         
10:29 26.03 Ю  16 км    10/10 240 м  +1.0  0.0  93  -5  -5      1005.5         
10:45 26.03 Ю  16 км    10/10 300 м  +1.0  0.0  93  -5  -5      1005.9         
10:56 26.03 ЮЗ  16 км    10/10 360 м  +0.6  0.0  96  -4  -4    1012.0  1005.9  0.0  +0.6     
11:56 26.03 Ю  16 км    10/10 300 м  0.0  -0.6  96  -7  -7    1012.5  1006.5         
12:20 26.03 ЮЗ  16 км    10/10 120 м  0.0  -1.0  93  -6  -6      1006.5         
12:33 26.03 ЮЗ  16 км    10/10 120 м  0.0  -1.0  93  -6  -6      1006.5         
12:52 26.03 ЮЗ  16 км    10/10 120 м  0.0  -1.0  93  -5  -5      1006.5         
12:56 26.03 ЮЗ  16 км    10/10 120 м  0.0  -0.6  96  -5  -5    1012.8  1006.9         
13:05 26.03 ЮЗ  16 км    10/10 180 м  0.0  -1.0  93  -5  -5      1006.9         
13:26 26.03 ЮЗ  16 км    10/10 240 м  0.0  -1.0  93  -4  -4      1006.9         
13:56 26.03 ЮЗ  14 км    10/10 360 м  0.0  -0.6  96  -5  -5    1013.1  1007.2         
14:56 26.03 ЮЗ  14 км    10/10 300 м  0.0  -0.6  96  -6  -6    1013.5  1007.6         
15:31 26.03 Ю  11 км    10/10 240 м  0.0  -1.0  93  -5  -5      1007.9         
15:56 26.03 Ю  11 км    10/10 240 м  0.0  -0.6  96  -6  -6    1014.2  1008.2         
16:03 26.03 ЮЗ  11 км    10/10 330 м  0.0  -1.0  93  -6  -6      1008.2         
16:56 26.03 Ю  11 км    10/10 330 м  0.0  -0.6  96  -6  -6    1014.7  1008.6  -0.6  +0.6     
17:17 26.03 Ю  11 км    10/10 270 м  0.0  -1.0  93  -6  -6      1008.9         
17:56 26.03 Ю  10 км  дымка  10/10 270 м  0.0  -1.1  92  -6  -6    1015.3  1009.2         
18:56 26.03 Ю  11 км    10/10 270 м  +0.6  -1.1  88  -4  -4    1015.8  1009.9         
19:56 26.03 Ю  11 км    10/10 270 м  +0.6  -1.1  88  -5  -5    1016.3  1010.2         
20:11 26.03 Ю  11 км    10/10 330 м  +1.0  -1.0  86  -5  -5      1010.2         
20:44 26.03 Ю  11 км    10/10 270 м  +1.0  -1.0  86  -5  -5      1010.6         
20:56 26.03 Ю  11 км    10/10 270 м  +0.6  -1.1  88  -5  -5    1016.8  1010.6         

 

Местоположение метеостанции Elim Airport: широта 64.6150 долгота -162.2705 высота над уровнем моря 49 м.

В архиве по умолчанию представлена погода в Элиме за последние 1-2 суток. Обновление информации о фактической погоде в базе происходит ежечасно! Архивные данные за месяц целиком и за предыдущие месяцы Вы можете получить, выбрав интересующий диапазон дат из раскрывающегося списка и нажав кнопку "Ввод!".

Внимание! Архив погоды МЕТАР в базе сайта хранится не более 60 дней. Нет смысла пытаться выбрать более раннюю дату.

Внимание! Время в таблицах - всемирное. Для получения местного времени необходимо прибавить поправку, которая в Элиме равна -9 ч.

Ветер - указаны скорость ветра в м/с и направление, откуда дует ветер: С - северный, СВ - северо-восточный, В - восточный, ЮВ - юго-восточный, Ю - южный, ЮЗ - юго-западный, З - западный, СЗ - северо-западный.
Видимость - горизонтальная дальность видимости в метрах или километрах. При видимости от 1 до 10 км при отсутствии осадков обычно наблюдается дымка, при ухудшении видимости до 1 км и менее - туман. В сухую погоду видимость может ухудшаться дымом, пылью или мглою.
Атмосферные явления - указаны явления, наблюдавшиеся в указанный момент времени.
Облачность - указаны через наклонную черту верхняя и нижняя облачность в баллах и высота нижней границы облаков в метрах. Внимание: облачность, как и прочие метеорологические величины в США измеряются автоматическими метеостанциями. Указанные значения в баллах носят условный характер и показывают процент времени, в течение которого, в среднем, лазерный луч высотомера отражался от облаков обратно.
T - Температура воздуха - температура, измеренная на высоте 2 м над землей.
Td - Температура точки росы - температура, при понижении до которой содержащийся в воздухе водяной пар достигнет насыщения.
f - Относительная влажность воздуха - влажноcть воздуха, измеренная на высоте 2 м над землей.
Te - Эффективная температура - температура, которую ощущает одетый по сезону человек в тени. Характеристика душности погоды. При расчете учитывается влияние влажности воздуха и скорости ветра на теплоощущения человека.
Tes - Эффективная температура на солнце - температура, которую ощущает человек, с поправкой на солнечный нагрев. Характеристика знойности погоды. Зависит от высоты солнца над горизонтом, облачности и скорости ветра. Ночью, в пасмурную погоду, а также при ветре 12 м/с и более поправка равна нулю.
P - Атмосферное давление - приведенное к уровню моря атмосферное давление.
Po - Атмосферное давление - измеренное на уровне метеостанции атмосферное давление.
Tmin - Минимальная температура - минимум температуры воздуха на высоте 2 м над землей.
Tmax - Максимальная температура - максимум температуры воздуха на высоте 2 м над землей.
R - Количество осадков - Количество выпавших осадков за 3 или 6 часов, мм.
SD - Снежный покров - Высота снежного покрова, см.